| time (UTC) | temp F | wind direction | speed MPH | gust MPH | rain 1hr in | rain 24hr in | rain mn in | humidity % | barometer mb |
| 20260505083005 | 56 | 25 | 6.0 | 10.0 | 0.00 | 0.07 | 0.06 | 81 | 1012.3 |
| 20260505082506 | 56 | 29 | 6.0 | 11.0 | 0.00 | 0.07 | 0.06 | 82 | 1012.3 |
| 20260505082005 | 55 | 35 | 6.0 | 14.0 | 0.00 | 0.07 | 0.06 | 83 | 1012.4 |
| 20260505081506 | 55 | 36 | 4.0 | 14.0 | 0.00 | 0.07 | 0.06 | 85 | 1012.5 |
| 20260505081006 | 55 | 24 | 4.0 | 7.0 | 0.00 | 0.07 | 0.06 | 87 | 1012.5 |
| 20260505080505 | 54 | 22 | 5.0 | 11.0 | 0.00 | 0.07 | 0.06 | 87 | 1012.6 |
| 20260505080005 | 54 | 25 | 5.0 | 11.0 | 0.00 | 0.07 | 0.06 | 87 | 1012.6 |
| 20260505075006 | 53 | 24 | 5.0 | 11.0 | 0.00 | 0.07 | 0.06 | 88 | 1012.7 |
| 20260505074506 | 53 | 17 | 5.0 | 11.0 | 0.00 | 0.07 | 0.06 | 88 | 1012.6 |
| 20260505074005 | 53 | 12 | 5.0 | 10.0 | 0.00 | 0.07 | 0.06 | 88 | 1012.5 |
| 20260505073506 | 53 | 11 | 5.0 | 11.0 | 0.00 | 0.07 | 0.06 | 88 | 1012.5 |
| 20260505073006 | 53 | 19 | 5.0 | 11.0 | 0.00 | 0.07 | 0.06 | 88 | 1012.5 |
| 20260505072505 | 53 | 30 | 5.0 | 10.0 | 0.00 | 0.07 | 0.06 | 89 | 1012.5 |
| 20260505072005 | 53 | 26 | 5.0 | 10.0 | 0.00 | 0.07 | 0.06 | 90 | 1012.5 |
| 20260505071006 | 52 | 24 | 6.0 | 10.0 | 0.00 | 0.07 | 0.06 | 90 | 1012.6 |
| 20260505070006 | 52 | 11 | 4.0 | 8.0 | 0.00 | 0.07 | 0.06 | 93 | 1012.7 |
| 20260505065506 | 51 | 14 | 4.0 | 8.0 | 0.00 | 0.07 | 0.06 | 93 | 1012.6 |
| 20260505065006 | 51 | 22 | 5.0 | 9.0 | 0.00 | 0.07 | 0.06 | 94 | 1012.7 |
| 20260505064005 | 50 | 359 | 4.0 | 7.0 | 0.00 | 0.07 | 0.06 | 95 | 1012.7 |
| 20260505063506 | 50 | 359 | 2.0 | 7.0 | 0.00 | 0.07 | 0.06 | 95 | 1012.6 |
| 20260505063006 | 49 | 357 | 2.0 | 7.0 | 0.00 | 0.07 | 0.06 | 95 | 1012.6 |
| 20260505062506 | 49 | 2 | 2.0 | 6.0 | 0.00 | 0.07 | 0.06 | 95 | 1012.6 |
| 20260505061505 | 49 | 17 | 2.0 | 6.0 | 0.00 | 0.07 | 0.06 | 95 | 1012.5 |
| 20260505061005 | 49 | 31 | 2.0 | 6.0 | 0.00 | 0.07 | 0.06 | 95 | 1012.5 |
| 20260505060506 | 49 | 34 | 1.0 | 6.0 | 0.00 | 0.07 | 0.06 | 95 | 1012.5 |
| 20260505060006 | 49 | 45 | 2.0 | 5.0 | 0.00 | 0.07 | 0.06 | 95 | 1012.6 |
| 20260505055506 | 49 | 43 | 2.0 | 5.0 | 0.00 | 0.07 | 0.06 | 96 | 1012.6 |
| 20260505054505 | 48 | 34 | 1.0 | 5.0 | 0.00 | 0.07 | 0.06 | 96 | 1012.5 |
| 20260505054005 | 48 | 34 | 2.0 | 6.0 | 0.00 | 0.07 | 0.06 | 96 | 1012.5 |
| 20260505053505 | 48 | 19 | 2.0 | 6.0 | 0.00 | 0.07 | 0.06 | 96 | 1012.4 |
| 20260505052505 | 48 | 12 | 2.0 | 7.0 | 0.00 | 0.07 | 0.06 | 95 | 1012.3 |
| 20260505052005 | 48 | 13 | 4.0 | 6.0 | 0.00 | 0.07 | 0.06 | 95 | 1012.3 |
| 20260505051505 | 48 | 16 | 4.0 | 7.0 | 0.00 | 0.07 | 0.06 | 95 | 1012.4 |
| 20260505050505 | 48 | 11 | 4.0 | 8.0 | 0.00 | 0.07 | 0.06 | 95 | 1012.4 |
| 20260505041505 | 49 | 39 | 1.0 | 5.0 | 0.00 | 0.07 | 0.06 | 95 | 1012.3 |
| 20260505041006 | 49 | 36 | 1.0 | 5.0 | 0.00 | 0.07 | 0.06 | 95 | 1012.4 |
| 20260505040505 | 50 | 33 | 2.0 | 5.0 | 0.00 | 0.07 | 0.06 | 95 | 1012.4 |
| 20260505040006 | 50 | 30 | 2.0 | 5.0 | 0.00 | 0.07 | 0.06 | 95 | 1012.4 |
| 20260505035505 | 50 | 27 | 1.0 | 5.0 | 0.00 | 0.07 | 0.06 | 95 | 1012.5 |
| 20260505035006 | 50 | 21 | 1.0 | 3.0 | 0.00 | 0.07 | 0.06 | 95 | 1012.5 |
| 20260505034506 | 50 | 15 | 1.0 | 2.0 | 0.00 | 0.07 | 0.06 | 95 | 1012.5 |
| 20260505034006 | 50 | 0 | 0.0 | 2.0 | 0.00 | 0.07 | 0.06 | 95 | 1012.6 |
| 20260505033506 | 50 | 0 | 0.0 | 2.0 | 0.00 | 0.07 | 0.06 | 95 | 1012.7 |
| 20260505032505 | 51 | 15 | 1.0 | 2.0 | 0.00 | 0.07 | 0.06 | 95 | 1012.7 |
| 20260505032006 | 51 | 0 | 0.0 | 2.0 | 0.00 | 0.07 | 0.06 | 95 | 1012.7 |
| 20260505031506 | 51 | 0 | 0.0 | 2.0 | 0.00 | 0.07 | 0.06 | 95 | 1012.7 |
| 20260505030506 | 51 | 0 | 0.0 | 1.0 | 0.00 | 0.07 | 0.06 | 95 | 1012.6 |
| 20260505030005 | 51 | 0 | 0.0 | 1.0 | 0.00 | 0.07 | 0.06 | 95 | 1012.7 |
| 20260505025506 | 51 | 0 | 0.0 | 2.0 | 0.00 | 0.07 | 0.06 | 95 | 1012.7 |
| 20260505025006 | 51 | 0 | 0.0 | 2.0 | 0.00 | 0.07 | 0.06 | 95 | 1012.7 |
| 20260505024506 | 51 | 15 | 1.0 | 2.0 | 0.00 | 0.07 | 0.06 | 95 | 1012.7 |
| 20260505024006 | 51 | 16 | 1.0 | 2.0 | 0.00 | 0.07 | 0.06 | 95 | 1012.7 |
| 20260505023506 | 51 | 10 | 1.0 | 3.0 | 0.00 | 0.07 | 0.06 | 95 | 1012.6 |
| 20260505022505 | 52 | 0 | 0.0 | 2.0 | 0.00 | 0.07 | 0.06 | 95 | 1012.6 |
| 20260505021006 | 52 | 356 | 1.0 | 2.0 | 0.01 | 0.07 | 0.06 | 95 | 1012.7 |
| 20260505015506 | 52 | 0 | 0.0 | 1.0 | 0.02 | 0.07 | 0.06 | 95 | 1012.6 |
| 20260505015006 | 53 | 0 | 0.0 | 2.0 | 0.02 | 0.07 | 0.06 | 95 | 1012.7 |
| 20260505014506 | 53 | 0 | 0.0 | 2.0 | 0.02 | 0.07 | 0.06 | 95 | 1012.7 |
| 20260505014006 | 53 | 0 | 0.0 | 2.0 | 0.02 | 0.07 | 0.06 | 95 | 1012.7 |
| 20260505013505 | 53 | 0 | 0.0 | 1.0 | 0.02 | 0.07 | 0.06 | 95 | 1012.8 |
| 20260505013005 | 53 | 0 | 0.0 | 2.0 | 0.02 | 0.07 | 0.06 | 95 | 1012.9 |
| 20260505012507 | 53 | 0 | 0.0 | 2.0 | 0.02 | 0.07 | 0.06 | 95 | 1013.0 |
| 20260505012006 | 53 | 23 | 1.0 | 2.0 | 0.02 | 0.06 | 0.05 | 95 | 1012.9 |
| 20260505011005 | 53 | 18 | 1.0 | 3.0 | 0.02 | 0.06 | 0.05 | 94 | 1013.0 |
| 20260505010505 | 53 | 22 | 1.0 | 5.0 | 0.02 | 0.06 | 0.04 | 94 | 1013.1 |
| 20260505010006 | 53 | 29 | 1.0 | 5.0 | 0.02 | 0.06 | 0.04 | 94 | 1013.1 |
| 20260505005506 | 53 | 25 | 1.0 | 5.0 | 0.02 | 0.06 | 0.04 | 94 | 1013.1 |
| 20260505005006 | 53 | 11 | 1.0 | 5.0 | 0.01 | 0.05 | 0.03 | 94 | 1013.1 |
| 20260505003506 | 53 | 5 | 1.0 | 3.0 | 0.02 | 0.05 | 0.03 | 94 | 1013.2 |
| 20260505002506 | 53 | 30 | 1.0 | 2.0 | 0.02 | 0.05 | 0.03 | 94 | 1013.3 |
| 20260505002005 | 53 | 28 | 1.0 | 2.0 | 0.02 | 0.04 | 0.02 | 94 | 1013.2 |
| 20260505001505 | 53 | 28 | 1.0 | 2.0 | 0.02 | 0.04 | 0.02 | 94 | 1013.3 |
| 20260505001006 | 53 | 28 | 1.0 | 2.0 | 0.02 | 0.04 | 0.02 | 94 | 1013.3 |
| 20260505000506 | 53 | 16 | 1.0 | 2.0 | 0.02 | 0.04 | 0.02 | 94 | 1013.3 |
| 20260504235506 | 53 | 10 | 1.0 | 3.0 | 0.02 | 0.04 | 0.02 | 94 | 1013.4 |
| 20260504235005 | 53 | 23 | 1.0 | 3.0 | 0.02 | 0.03 | 0.02 | 94 | 1013.4 |
| 20260504234506 | 53 | 22 | 2.0 | 5.0 | 0.02 | 0.03 | 0.02 | 93 | 1013.3 |
| 20260504234005 | 53 | 27 | 2.0 | 8.0 | 0.02 | 0.03 | 0.02 | 93 | 1013.3 |
| 20260504233506 | 53 | 27 | 2.0 | 8.0 | 0.02 | 0.03 | 0.02 | 93 | 1013.4 |
| 20260504232506 | 54 | 27 | 2.0 | 6.0 | 0.01 | 0.02 | 0.01 | 93 | 1013.4 |
| 20260504232006 | 54 | 32 | 2.0 | 6.0 | 0.01 | 0.02 | 0.01 | 93 | 1013.4 |
| 20260504231506 | 54 | 31 | 2.0 | 6.0 | 0.02 | 0.02 | 0.01 | 93 | 1013.3 |
| 20260504231006 | 54 | 35 | 2.0 | 6.0 | 0.02 | 0.02 | 0.01 | 93 | 1013.3 |
| 20260504230506 | 54 | 42 | 2.0 | 6.0 | 0.02 | 0.02 | 0.01 | 93 | 1013.3 |
| 20260504230007 | 54 | 46 | 2.0 | 7.0 | 0.02 | 0.02 | 0.00 | 93 | 1013.3 |
| 20260504225006 | 54 | 31 | 2.0 | 6.0 | 0.02 | 0.02 | 0.02 | 92 | 1013.4 |
| 20260504224505 | 54 | 30 | 2.0 | 6.0 | 0.02 | 0.02 | 0.02 | 92 | 1013.5 |
| 20260504223505 | 55 | 29 | 2.0 | 6.0 | 0.02 | 0.02 | 0.02 | 92 | 1013.5 |
| 20260504223006 | 55 | 26 | 1.0 | 6.0 | 0.02 | 0.02 | 0.02 | 92 | 1013.6 |
| 20260504222506 | 55 | 33 | 1.0 | 3.0 | 0.02 | 0.02 | 0.02 | 91 | 1013.6 |
| 20260504221506 | 55 | 55 | 2.0 | 5.0 | 0.01 | 0.01 | 0.01 | 91 | 1013.5 |
| 20260504221006 | 55 | 54 | 2.0 | 5.0 | 0.00 | 0.00 | 0.00 | 91 | 1013.6 |
| 20260504220505 | 55 | 48 | 2.0 | 5.0 | 0.00 | 0.00 | 0.00 | 90 | 1013.5 |
| 20260504220005 | 56 | 39 | 2.0 | 5.0 | 0.00 | 0.00 | 0.00 | 90 | 1013.5 |
| 20260504215505 | 56 | 34 | 2.0 | 5.0 | 0.00 | 0.00 | 0.00 | 90 | 1013.4 |
| 20260504214506 | 56 | 25 | 2.0 | 6.0 | 0.00 | 0.00 | 0.00 | 89 | 1013.5 |
| 20260504214006 | 56 | 33 | 2.0 | 6.0 | 0.00 | 0.00 | 0.00 | 89 | 1013.5 |
| 20260504213506 | 56 | 38 | 2.0 | 5.0 | 0.00 | 0.00 | 0.00 | 89 | 1013.5 |
| 20260504213006 | 56 | 41 | 2.0 | 5.0 | 0.00 | 0.00 | 0.00 | 89 | 1013.6 |
| 20260504212506 | 56 | 45 | 2.0 | 5.0 | 0.00 | 0.00 | 0.00 | 89 | 1013.6 |
| 20260504212006 | 56 | 46 | 2.0 | 5.0 | 0.00 | 0.00 | 0.00 | 89 | 1013.5 |
| 20260504211506 | 56 | 31 | 2.0 | 5.0 | 0.00 | 0.00 | 0.00 | 89 | 1013.5 |
| 20260504210506 | 56 | 35 | 2.0 | 6.0 | 0.00 | 0.00 | 0.00 | 89 | 1013.6 |
| 20260504205505 | 56 | 27 | 1.0 | 5.0 | 0.00 | 0.00 | 0.00 | 89 | 1013.6 |
| 20260504205006 | 56 | 28 | 1.0 | 5.0 | 0.00 | 0.00 | 0.00 | 88 | 1013.6 |
| 20260504204506 | 56 | 42 | 1.0 | 3.0 | 0.00 | 0.00 | 0.00 | 88 | 1013.6 |
| 20260504204006 | 57 | 39 | 1.0 | 5.0 | 0.00 | 0.00 | 0.00 | 87 | 1013.6 |
| 20260504203506 | 57 | 33 | 1.0 | 5.0 | 0.00 | 0.00 | 0.00 | 87 | 1013.6 |
| 20260504203006 | 57 | 34 | 1.0 | 5.0 | 0.00 | 0.00 | 0.00 | 86 | 1013.5 |
| 20260504202505 | 57 | 45 | 1.0 | 3.0 | 0.00 | 0.00 | 0.00 | 86 | 1013.5 |
| 20260504201506 | 57 | 37 | 2.0 | 6.0 | 0.00 | 0.00 | 0.00 | 85 | 1013.4 |
| 20260504201006 | 58 | 46 | 4.0 | 10.0 | 0.00 | 0.00 | 0.00 | 85 | 1013.3 |
| 20260504200506 | 58 | 45 | 4.0 | 10.0 | 0.00 | 0.00 | 0.00 | 85 | 1013.3 |
| 20260504200006 | 58 | 48 | 4.0 | 7.0 | 0.00 | 0.00 | 0.00 | 84 | 1013.3 |
| 20260504195505 | 58 | 57 | 4.0 | 7.0 | 0.00 | 0.00 | 0.00 | 84 | 1013.3 |
| 20260504195007 | 58 | 65 | 2.0 | 6.0 | 0.00 | 0.00 | 0.00 | 84 | 1013.3 |
| 20260504194506 | 58 | 63 | 2.0 | 6.0 | 0.00 | 0.00 | 0.00 | 83 | 1013.3 |
| 20260504194005 | 58 | 59 | 4.0 | 8.0 | 0.00 | 0.00 | 0.00 | 83 | 1013.2 |
| 20260504193505 | 58 | 60 | 4.0 | 8.0 | 0.00 | 0.00 | 0.00 | 83 | 1013.2 |
| 20260504193006 | 59 | 56 | 4.0 | 8.0 | 0.00 | 0.00 | 0.00 | 82 | 1013.1 |
| 20260504192506 | 59 | 61 | 4.0 | 8.0 | 0.00 | 0.00 | 0.00 | 82 | 1013.0 |
| 20260504191006 | 60 | 70 | 5.0 | 13.0 | 0.00 | 0.00 | 0.00 | 80 | 1012.9 |
| 20260504190006 | 60 | 67 | 4.0 | 9.0 | 0.00 | 0.00 | 0.00 | 80 | 1012.8 |
| 20260504185006 | 60 | 73 | 2.0 | 7.0 | 0.00 | 0.00 | 0.00 | 80 | 1012.7 |
| 20260504184505 | 60 | 66 | 4.0 | 9.0 | 0.00 | 0.00 | 0.00 | 80 | 1012.7 |
| 20260504184005 | 60 | 56 | 4.0 | 10.0 | 0.00 | 0.00 | 0.00 | 79 | 1012.7 |
| 20260504183005 | 60 | 43 | 4.0 | 9.0 | 0.00 | 0.00 | 0.00 | 78 | 1012.7 |
| 20260504182506 | 60 | 35 | 4.0 | 10.0 | 0.00 | 0.00 | 0.00 | 78 | 1012.7 |
| 20260504182006 | 60 | 25 | 4.0 | 10.0 | 0.00 | 0.00 | 0.00 | 78 | 1012.6 |
| 20260504181505 | 61 | 26 | 5.0 | 10.0 | 0.00 | 0.00 | 0.00 | 78 | 1012.6 |
| 20260504180505 | 61 | 25 | 4.0 | 9.0 | 0.00 | 0.00 | 0.00 | 77 | 1012.5 |
| 20260504175006 | 61 | 34 | 5.0 | 9.0 | 0.00 | 0.00 | 0.00 | 77 | 1012.5 |
| 20260504174506 | 61 | 50 | 5.0 | 11.0 | 0.00 | 0.00 | 0.00 | 77 | 1012.5 |
| 20260504174005 | 61 | 49 | 6.0 | 11.0 | 0.00 | 0.00 | 0.00 | 77 | 1012.5 |
| 20260504173505 | 62 | 45 | 6.0 | 13.0 | 0.00 | 0.00 | 0.00 | 76 | 1012.5 |
| 20260504173005 | 62 | 52 | 5.0 | 13.0 | 0.00 | 0.00 | 0.00 | 76 | 1012.5 |
| 20260504172505 | 62 | 51 | 5.0 | 11.0 | 0.00 | 0.00 | 0.00 | 77 | 1012.5 |
| 20260504172006 | 62 | 53 | 6.0 | 11.0 | 0.00 | 0.00 | 0.00 | 77 | 1012.5 |
| 20260504171506 | 62 | 53 | 5.0 | 10.0 | 0.00 | 0.00 | 0.00 | 76 | 1012.5 |
| 20260504171005 | 62 | 49 | 4.0 | 8.0 | 0.00 | 0.00 | 0.00 | 76 | 1012.4 |
| 20260504170505 | 62 | 49 | 4.0 | 9.0 | 0.00 | 0.00 | 0.00 | 76 | 1012.4 |
| 20260504150506 | 64 | 75 | 4.0 | 9.0 | 0.00 | 0.00 | 0.00 | 68 | 1012.3 |
| 20260504141005 | 66 | 79 | 2.0 | 9.0 | 0.00 | 0.00 | 0.00 | 62 | 1012.3 |
| 20260504140505 | 66 | 74 | 2.0 | 6.0 | 0.00 | 0.00 | 0.00 | 60 | 1012.4 |
| 20260504130505 | 67 | 225 | 2.0 | 5.0 | 0.00 | 0.00 | 0.00 | 54 | 1012.4 |
| 20260504110505 | 66 | 78 | 1.0 | 3.0 | 0.00 | 0.00 | 0.00 | 64 | 1013.0 |